UAL1032 KEWR-KLAS

Flight info

Callsign UAL1032
Flight time N/A
Altitude 36000
Route NEWEL J60 DJB JOT IOW/N0450F380 OVR MCK HBU J146 DVC TYEGR CHOWW4
Aircraft B38M/M-SDE1FGHILORVWXY/HB1

Departure

Time N/A
Airport Newark Liberty International Airport (KEWR)

Arrival

Time 2026-05-04 00:57
Airport Harry Reid International Airport (KLAS)
Time Latitude Longitude Altitude Speed Heading
2026-05-03 20:15 40.77865 -77.00292 35973 ft 406 kts 280°
2026-05-03 20:15 40.78917 -77.07631 35976 ft 407 kts 280°
2026-05-03 20:16 40.79965 -77.14981 35982 ft 407 kts 280°
2026-05-03 20:16 40.81008 -77.22331 35987 ft 407 kts 280°
2026-05-03 20:17 40.82038 -77.29626 35990 ft 407 kts 280°
2026-05-03 20:17 40.83072 -77.36975 35986 ft 407 kts 280°
2026-05-03 20:18 40.84099 -77.44321 35984 ft 407 kts 280°
2026-05-03 20:18 40.85123 -77.51685 35988 ft 407 kts 279°
2026-05-03 20:19 40.86142 -77.59043 35986 ft 407 kts 280°
2026-05-03 20:19 40.87150 -77.66354 35997 ft 407 kts 280°
2026-05-03 20:20 40.88161 -77.73730 36000 ft 407 kts 279°
2026-05-03 20:20 40.89166 -77.81098 35999 ft 407 kts 279°
2026-05-03 20:21 40.90161 -77.88422 36005 ft 407 kts 279°
2026-05-03 20:21 40.91156 -77.95787 35997 ft 407 kts 279°
2026-05-03 20:22 40.92099 -78.03173 36005 ft 407 kts 279°
2026-05-03 20:22 40.93017 -78.10558 36004 ft 407 kts 279°
2026-05-03 20:23 40.93930 -78.17932 35998 ft 407 kts 279°
2026-05-03 20:23 40.94840 -78.25316 35993 ft 406 kts 279°
2026-05-03 20:24 40.95744 -78.32698 35989 ft 406 kts 279°
2026-05-03 20:24 40.96638 -78.40027 35989 ft 406 kts 279°
2026-05-03 20:25 40.97529 -78.47407 35991 ft 406 kts 279°
2026-05-03 20:25 40.98417 -78.54795 35991 ft 406 kts 279°
2026-05-03 20:26 40.99150 -78.60930 36001 ft 406 kts 279°
2026-05-03 20:26 41.00029 -78.68321 35997 ft 406 kts 279°
2026-05-03 20:27 41.00901 -78.75706 35996 ft 406 kts 279°
2026-05-03 20:27 41.01770 -78.83095 35989 ft 405 kts 279°
2026-05-03 20:28 41.02633 -78.90482 35991 ft 406 kts 279°
2026-05-03 20:28 41.03486 -78.97819 35993 ft 405 kts 279°
2026-05-03 20:29 41.04339 -79.05198 35989 ft 405 kts 279°
2026-05-03 20:29 41.05187 -79.12584 35997 ft 405 kts 279°
2026-05-03 20:30 41.06030 -79.19963 36014 ft 405 kts 279°
2026-05-03 20:30 41.06869 -79.27350 36018 ft 405 kts 279°
2026-05-03 20:31 41.07702 -79.34737 36031 ft 405 kts 279°
2026-05-03 20:31 41.08525 -79.42067 36036 ft 405 kts 279°
2026-05-03 20:32 41.09348 -79.49447 36031 ft 404 kts 279°
2026-05-03 20:32 41.10167 -79.56832 36039 ft 404 kts 279°
2026-05-03 20:33 41.10981 -79.64214 36037 ft 404 kts 279°
2026-05-03 20:33 41.11788 -79.71586 36025 ft 404 kts 279°
2026-05-03 20:34 41.12591 -79.78957 36023 ft 404 kts 279°
2026-05-03 20:34 41.13388 -79.86323 36025 ft 403 kts 279°
2026-05-03 20:35 41.14175 -79.93632 36028 ft 403 kts 279°
2026-05-03 20:35 41.14962 -80.00994 36029 ft 403 kts 279°
2026-05-03 20:36 41.15747 -80.08365 36037 ft 402 kts 279°
2026-05-03 20:36 41.16525 -80.15728 36036 ft 402 kts 278°
2026-05-03 20:37 41.17293 -80.23073 36033 ft 402 kts 279°
2026-05-03 20:37 41.18059 -80.30425 36029 ft 401 kts 278°
2026-05-03 20:38 41.18815 -80.37728 36033 ft 401 kts 278°
2026-05-03 20:38 41.19571 -80.45075 36023 ft 401 kts 278°
2026-05-03 20:39 41.20320 -80.52406 36006 ft 401 kts 278°
2026-05-03 20:39 41.21066 -80.59744 36001 ft 400 kts 278°
2026-05-03 20:40 41.21801 -80.67028 36000 ft 400 kts 278°
2026-05-03 20:40 41.22536 -80.74361 36001 ft 400 kts 278°
2026-05-03 20:41 41.23265 -80.81679 36001 ft 399 kts 278°
2026-05-03 20:41 41.23990 -80.89000 36003 ft 399 kts 278°
2026-05-03 20:42 41.24707 -80.96302 36003 ft 398 kts 278°
2026-05-03 20:42 41.25420 -81.03604 36001 ft 398 kts 278°
2026-05-03 20:43 41.26127 -81.10894 36000 ft 398 kts 278°
2026-05-03 20:43 41.26829 -81.18176 35998 ft 397 kts 278°
2026-05-03 20:44 41.27521 -81.25412 35998 ft 397 kts 278°
2026-05-03 20:44 41.28213 -81.32687 35996 ft 396 kts 278°
2026-05-03 20:45 41.28900 -81.39963 35996 ft 396 kts 278°
2026-05-03 20:45 41.29583 -81.47245 35996 ft 396 kts 278°
2026-05-03 20:46 41.30256 -81.54454 35995 ft 395 kts 278°
2026-05-03 20:46 41.30925 -81.61718 35982 ft 395 kts 278°
2026-05-03 20:47 41.31589 -81.68963 35983 ft 395 kts 278°
2026-05-03 20:47 41.32250 -81.76218 35978 ft 394 kts 278°
2026-05-03 20:48 41.32905 -81.83461 35972 ft 394 kts 278°
2026-05-03 20:48 41.33554 -81.90696 35971 ft 394 kts 278°
2026-05-03 20:49 41.34195 -81.97881 35976 ft 393 kts 278°
2026-05-03 20:49 41.34834 -82.05109 35988 ft 393 kts 278°
2026-05-03 20:50 41.35469 -82.12327 35986 ft 393 kts 278°
2026-05-03 20:50 41.35958 -82.19572 35993 ft 393 kts 276°
2026-05-03 20:51 41.36360 -82.26824 35988 ft 393 kts 276°
2026-05-03 20:51 41.36767 -82.34073 35990 ft 392 kts 276°
2026-05-03 20:52 41.37170 -82.41313 35994 ft 392 kts 276°
2026-05-03 20:52 41.37567 -82.48550 35991 ft 392 kts 275°
2026-05-03 20:53 41.37962 -82.55806 35982 ft 392 kts 275°
2026-05-03 20:53 41.38349 -82.63021 35970 ft 392 kts 275°
2026-05-03 20:54 41.38735 -82.70275 35961 ft 393 kts 275°
2026-05-03 20:54 41.39304 -82.81166 35959 ft 393 kts 275°
2026-05-03 20:55 41.39678 -82.88424 35955 ft 393 kts 275°
2026-05-03 20:55 41.40045 -82.95641 35960 ft 393 kts 275°
2026-05-03 20:56 41.40411 -83.02918 35961 ft 393 kts 275°
2026-05-03 20:56 41.40771 -83.10193 35969 ft 393 kts 275°
2026-05-03 20:57 41.41126 -83.17438 35975 ft 393 kts 275°
2026-05-03 20:57 41.41478 -83.24706 35984 ft 394 kts 275°
2026-05-03 20:58 41.41825 -83.31993 35979 ft 394 kts 275°
2026-05-03 20:58 41.42169 -83.39290 35974 ft 394 kts 275°
2026-05-03 20:59 41.42507 -83.46589 35972 ft 394 kts 275°
2026-05-03 20:59 41.42840 -83.53849 35973 ft 395 kts 275°
2026-05-03 21:00 41.43061 -83.58732 35973 ft 395 kts 275°
2026-05-03 21:00 41.43495 -83.68460 35959 ft 395 kts 274°
2026-05-03 21:01 41.43816 -83.75776 35950 ft 395 kts 274°
2026-05-03 21:01 41.44131 -83.83059 35947 ft 395 kts 274°
2026-05-03 21:02 41.44443 -83.90381 35949 ft 395 kts 274°
2026-05-03 21:02 41.44751 -83.97715 35956 ft 395 kts 274°
2026-05-03 21:03 41.45052 -84.04998 35953 ft 396 kts 274°
2026-05-03 21:03 41.45350 -84.12343 35949 ft 396 kts 274°
2026-05-03 21:04 41.45644 -84.19668 35953 ft 396 kts 274°
2026-05-03 21:04 41.45932 -84.26970 35967 ft 396 kts 274°
2026-05-03 21:05 41.46217 -84.34323 35962 ft 396 kts 274°
2026-05-03 21:05 41.46497 -84.41663 35969 ft 396 kts 274°
2026-05-03 21:06 41.46771 -84.48966 35966 ft 396 kts 274°
2026-05-03 21:06 41.47042 -84.56316 35966 ft 397 kts 274°
2026-05-03 21:07 41.47308 -84.63667 35969 ft 397 kts 274°
2026-05-03 21:07 41.47570 -84.71017 35977 ft 397 kts 274°
2026-05-03 21:08 41.47827 -84.78382 35979 ft 397 kts 274°
2026-05-03 21:08 41.48080 -84.85750 35972 ft 397 kts 274°
2026-05-03 21:09 41.48328 -84.93122 35967 ft 398 kts 274°
2026-05-03 21:09 41.48571 -85.00485 35966 ft 398 kts 274°
2026-05-03 21:10 41.48809 -85.07817 35963 ft 398 kts 274°
2026-05-03 21:10 41.49043 -85.15215 35962 ft 398 kts 274°
2026-05-03 21:11 41.49273 -85.22597 35961 ft 398 kts 274°
2026-05-03 21:11 41.49498 -85.29987 35961 ft 399 kts 274°
2026-05-03 21:12 41.49718 -85.37381 35961 ft 399 kts 274°
2026-05-03 21:12 41.49933 -85.44732 35956 ft 399 kts 274°
2026-05-03 21:13 41.50109 -85.50887 35959 ft 399 kts 274°
2026-05-03 21:13 41.50316 -85.58291 35954 ft 399 kts 274°
2026-05-03 21:14 41.50519 -85.65693 35952 ft 399 kts 274°
2026-05-03 21:14 41.50717 -85.73101 35950 ft 399 kts 274°
2026-05-03 21:15 41.50910 -85.80501 35951 ft 399 kts 274°
2026-05-03 21:15 41.51098 -85.87910 35951 ft 399 kts 274°
2026-05-03 21:16 41.51281 -85.95276 35953 ft 399 kts 274°
2026-05-03 21:16 41.51460 -86.02688 35957 ft 399 kts 274°
2026-05-03 21:17 41.51634 -86.10085 35958 ft 399 kts 274°
2026-05-03 21:17 41.51803 -86.17488 35950 ft 399 kts 274°
2026-05-03 21:18 41.51967 -86.24897 35959 ft 399 kts 274°
2026-05-03 21:18 41.52126 -86.32254 35953 ft 399 kts 274°
2026-05-03 21:19 41.52281 -86.39655 35954 ft 399 kts 274°
2026-05-03 21:19 41.52431 -86.47064 35933 ft 399 kts 274°
2026-05-03 21:20 41.52577 -86.54463 35916 ft 399 kts 274°
2026-05-03 21:20 41.52718 -86.61863 35913 ft 399 kts 274°
2026-05-03 21:21 41.52853 -86.69225 35907 ft 399 kts 274°
2026-05-03 21:21 41.52984 -86.76625 35903 ft 399 kts 274°
2026-05-03 21:22 41.53111 -86.84030 35903 ft 399 kts 274°
2026-05-03 21:22 41.53232 -86.91427 35912 ft 399 kts 274°
2026-05-03 21:23 41.53349 -86.98822 35907 ft 399 kts 274°
2026-05-03 21:23 41.53461 -87.06171 35904 ft 398 kts 274°
2026-05-03 21:24 41.53568 -87.13575 35906 ft 398 kts 274°
2026-05-03 21:24 41.53671 -87.20967 35907 ft 398 kts 274°
2026-05-03 21:25 41.53769 -87.28366 35890 ft 398 kts 274°
2026-05-03 21:25 41.53862 -87.35752 35885 ft 398 kts 274°
2026-05-03 21:26 41.53950 -87.43099 35884 ft 398 kts 274°
2026-05-03 21:26 41.54033 -87.50488 35887 ft 398 kts 273°
2026-05-03 21:27 41.54112 -87.57865 35887 ft 397 kts 274°
2026-05-03 21:27 41.54187 -87.65260 35888 ft 397 kts 274°
2026-05-03 21:28 41.54257 -87.72646 35881 ft 397 kts 274°
2026-05-03 21:28 41.54323 -87.79989 35878 ft 397 kts 274°
2026-05-03 21:29 41.54385 -87.87374 35871 ft 397 kts 274°
2026-05-03 21:29 41.54443 -87.94748 35866 ft 397 kts 274°
2026-05-03 21:30 41.54496 -88.02117 35868 ft 397 kts 274°
2026-05-03 21:30 41.54544 -88.09447 35867 ft 397 kts 273°
2026-05-03 21:31 41.54588 -88.16813 35849 ft 397 kts 273°
2026-05-03 21:31 41.54627 -88.24174 35849 ft 397 kts 273°
2026-05-03 21:32 41.54659 -88.31543 35853 ft 397 kts 273°
2026-05-03 21:32 41.54687 -88.38912 35851 ft 396 kts 274°
2026-05-03 21:33 41.54723 -88.46262 35851 ft 396 kts 273°
2026-05-03 21:33 41.54754 -88.53564 35840 ft 396 kts 274°
2026-05-03 21:34 41.54782 -88.60921 35841 ft 395 kts 274°
2026-05-03 21:34 41.54804 -88.68264 35836 ft 395 kts 273°
2026-05-03 21:35 41.54822 -88.75561 35838 ft 395 kts 273°
2026-05-03 21:35 41.54836 -88.82881 35836 ft 394 kts 273°
2026-05-03 21:36 41.54844 -88.90203 35834 ft 394 kts 273°
2026-05-03 21:36 41.54848 -88.97529 35822 ft 394 kts 273°
2026-05-03 21:37 41.54848 -89.04834 35834 ft 394 kts 273°
2026-05-03 21:37 41.54843 -89.12142 35830 ft 393 kts 273°
2026-05-03 21:38 41.54833 -89.19443 35829 ft 393 kts 273°
2026-05-03 21:38 41.54819 -89.26743 35828 ft 393 kts 273°
2026-05-03 21:39 41.54800 -89.33989 35829 ft 392 kts 273°
2026-05-03 21:39 41.54776 -89.41274 35824 ft 392 kts 273°
2026-05-03 21:40 41.54748 -89.48554 35817 ft 392 kts 273°
2026-05-03 21:40 41.54715 -89.55836 35815 ft 392 kts 273°
2026-05-03 21:41 41.54678 -89.63055 35813 ft 391 kts 273°
2026-05-03 21:41 41.54636 -89.70326 35812 ft 391 kts 273°
2026-05-03 21:42 41.54590 -89.77575 35811 ft 390 kts 273°
2026-05-03 21:42 41.54539 -89.84812 35815 ft 389 kts 273°
2026-05-03 21:43 41.54484 -89.91997 35812 ft 389 kts 273°
2026-05-03 21:43 41.54425 -89.99221 35814 ft 388 kts 273°
2026-05-03 21:44 41.54361 -90.06428 35814 ft 388 kts 273°
2026-05-03 21:44 41.54292 -90.13627 35814 ft 388 kts 273°
2026-05-03 21:45 41.54220 -90.20826 35813 ft 387 kts 273°
2026-05-03 21:45 41.54142 -90.28014 35814 ft 387 kts 273°
2026-05-03 21:46 41.54060 -90.35197 35809 ft 387 kts 273°
2026-05-03 21:46 41.53975 -90.42325 35811 ft 387 kts 273°
2026-05-03 21:47 41.53884 -90.49512 35812 ft 387 kts 273°
2026-05-03 21:47 41.53789 -90.56692 35810 ft 386 kts 273°
2026-05-03 21:48 41.53690 -90.63855 35812 ft 386 kts 273°
2026-05-03 21:48 41.53586 -90.71023 35814 ft 386 kts 272°
2026-05-03 21:49 41.53479 -90.78132 35808 ft 385 kts 273°
2026-05-03 21:49 41.53366 -90.85282 35806 ft 385 kts 273°
2026-05-03 21:50 41.53249 -90.92429 35810 ft 385 kts 272°
2026-05-03 21:50 41.53128 -90.99559 35815 ft 384 kts 272°
2026-05-03 21:51 41.53003 -91.06702 35816 ft 384 kts 272°
2026-05-03 21:51 41.52874 -91.13789 35814 ft 384 kts 272°
2026-05-03 21:52 41.52740 -91.20919 35817 ft 384 kts 272°
2026-05-03 21:52 41.52601 -91.28049 35816 ft 383 kts 272°
2026-05-03 21:53 41.52460 -91.35163 35814 ft 383 kts 272°
2026-05-03 21:53 41.52315 -91.42279 35819 ft 383 kts 272°
2026-05-03 21:54 41.52167 -91.49344 35821 ft 383 kts 272°
2026-05-03 21:54 41.52014 -91.56445 35820 ft 383 kts 272°
2026-05-03 21:55 41.51701 -91.63547 35822 ft 384 kts 269°
2026-05-03 21:55 41.51194 -91.70655 35818 ft 384 kts 269°
2026-05-03 21:56 41.50706 -91.77755 35817 ft 384 kts 269°
2026-05-03 21:56 41.50223 -91.84797 35813 ft 384 kts 269°
2026-05-03 21:57 41.49731 -91.91896 35810 ft 383 kts 269°
2026-05-03 21:57 41.49236 -91.98979 35817 ft 383 kts 269°
2026-05-03 21:58 41.48737 -92.06060 35819 ft 383 kts 269°
2026-05-03 21:58 41.48234 -92.13133 35818 ft 383 kts 269°
2026-05-03 21:59 41.47730 -92.20162 35823 ft 383 kts 269°
2026-05-03 21:59 41.47218 -92.27228 35824 ft 382 kts 269°
2026-05-03 22:00 41.46704 -92.34281 35829 ft 382 kts 269°
2026-05-03 22:00 41.46185 -92.41333 35833 ft 382 kts 269°
2026-05-03 22:01 41.45661 -92.48383 35844 ft 382 kts 269°
2026-05-03 22:01 41.45137 -92.55387 35833 ft 382 kts 269°
2026-05-03 22:02 41.44605 -92.62435 35836 ft 381 kts 269°
2026-05-03 22:02 41.44070 -92.69476 35849 ft 382 kts 269°
2026-05-03 22:03 41.43621 -92.75326 35843 ft 381 kts 269°
2026-05-03 22:03 41.43078 -92.82361 35842 ft 382 kts 269°
2026-05-03 22:04 41.42530 -92.89399 35846 ft 382 kts 269°
2026-05-03 22:04 41.41980 -92.96408 35846 ft 382 kts 269°
2026-05-03 22:05 41.41423 -93.03444 35848 ft 382 kts 269°
2026-05-03 22:05 41.40862 -93.10488 35839 ft 382 kts 269°
2026-05-03 22:06 41.40297 -93.17522 35843 ft 382 kts 269°
2026-05-03 22:06 41.39727 -93.24560 35843 ft 382 kts 269°
2026-05-03 22:07 41.39152 -93.31600 35848 ft 382 kts 269°
2026-05-03 22:07 41.38578 -93.38591 35843 ft 382 kts 269°
2026-05-03 22:08 41.37995 -93.45621 35850 ft 382 kts 269°
2026-05-03 22:08 41.37408 -93.52655 35850 ft 383 kts 269°
2026-05-03 22:09 41.36816 -93.59702 35847 ft 382 kts 269°
2026-05-03 22:10 41.35920 -93.70248 35853 ft 382 kts 269°
2026-05-03 22:10 41.35318 -93.77283 35853 ft 382 kts 269°
2026-05-03 22:11 41.34711 -93.84315 35855 ft 382 kts 269°
2026-05-03 22:11 41.34104 -93.91303 35860 ft 382 kts 269°
2026-05-03 22:12 41.33488 -93.98340 35858 ft 383 kts 269°
2026-05-03 22:12 41.32868 -94.05371 35869 ft 382 kts 269°
2026-05-03 22:13 41.32244 -94.12411 35870 ft 383 kts 269°
2026-05-03 22:13 41.31615 -94.19438 35873 ft 382 kts 269°
2026-05-03 22:14 41.30983 -94.26468 35876 ft 383 kts 269°
2026-05-03 22:14 41.30350 -94.33452 35876 ft 383 kts 269°
2026-05-03 22:15 41.29707 -94.40490 35878 ft 383 kts 269°
2026-05-03 22:15 41.29061 -94.47528 35880 ft 383 kts 269°
2026-05-03 22:16 41.28408 -94.54582 35872 ft 384 kts 269°
2026-05-03 22:16 41.27752 -94.61625 35875 ft 384 kts 269°
2026-05-03 22:17 41.27091 -94.68667 35874 ft 384 kts 269°
2026-05-03 22:17 41.26426 -94.75719 35877 ft 384 kts 269°
2026-05-03 22:18 41.25760 -94.82726 35876 ft 385 kts 268°
2026-05-03 22:18 41.25086 -94.89773 35877 ft 384 kts 268°
2026-05-03 22:19 41.24406 -94.96834 35873 ft 385 kts 268°
2026-05-03 22:19 41.23721 -95.03898 35875 ft 385 kts 268°
2026-05-03 22:20 41.23031 -95.10974 35878 ft 386 kts 268°
2026-05-03 22:20 41.22340 -95.18010 35880 ft 386 kts 268°
2026-05-03 22:21 41.21641 -95.25082 35886 ft 386 kts 268°
2026-05-03 22:21 41.20938 -95.32155 35885 ft 386 kts 268°
2026-05-03 22:22 41.20230 -95.39242 35887 ft 387 kts 268°
2026-05-03 22:22 41.19518 -95.46332 35879 ft 387 kts 268°
2026-05-03 22:23 41.18802 -95.53419 35881 ft 388 kts 268°
2026-05-03 22:23 41.18086 -95.60462 35876 ft 387 kts 268°
2026-05-03 22:24 41.17361 -95.67552 35879 ft 388 kts 268°
2026-05-03 22:24 41.16517 -95.74642 35872 ft 392 kts 261°
2026-05-03 22:25 41.15205 -95.81682 35873 ft 392 kts 263°
2026-05-03 22:25 41.13954 -95.88729 35875 ft 392 kts 263°
2026-05-03 22:26 41.12709 -95.95789 35875 ft 393 kts 263°
2026-05-03 22:26 41.11468 -96.02802 35876 ft 393 kts 263°
2026-05-03 22:27 41.10206 -96.09906 35886 ft 394 kts 263°
2026-05-03 22:27 41.08954 -96.16930 35885 ft 394 kts 263°
2026-05-03 22:28 41.07689 -96.24002 35889 ft 394 kts 263°
2026-05-03 22:28 41.06419 -96.31076 35890 ft 395 kts 263°
2026-05-03 22:29 41.05140 -96.38168 35892 ft 395 kts 263°
2026-05-03 22:29 41.03864 -96.45220 35887 ft 396 kts 262°
2026-05-03 22:30 41.02574 -96.52321 35900 ft 397 kts 262°
2026-05-03 22:30 41.01278 -96.59428 35899 ft 397 kts 262°
2026-05-03 22:31 40.99977 -96.66537 35902 ft 398 kts 262°
2026-05-03 22:31 40.98677 -96.73610 35903 ft 398 kts 262°
2026-05-03 22:32 40.97362 -96.80744 35901 ft 399 kts 262°
2026-05-03 22:32 40.96043 -96.87872 35904 ft 399 kts 262°
2026-05-03 22:33 40.94714 -96.95023 35904 ft 400 kts 262°
2026-05-03 22:33 40.93391 -97.02121 35905 ft 400 kts 262°
2026-05-03 22:34 40.92050 -97.09285 35906 ft 401 kts 262°
2026-05-03 22:34 40.90706 -97.16439 35904 ft 401 kts 262°
2026-05-03 22:35 40.89354 -97.23609 35910 ft 402 kts 262°
2026-05-03 22:35 40.87997 -97.30782 35907 ft 402 kts 262°
2026-05-03 22:36 40.86631 -97.37974 35907 ft 403 kts 262°
2026-05-03 22:36 40.85269 -97.45120 35903 ft 403 kts 261°
2026-05-03 22:37 40.83889 -97.52327 35907 ft 404 kts 261°
2026-05-03 22:37 40.82504 -97.59540 35901 ft 404 kts 261°
2026-05-03 22:38 40.81115 -97.66745 35904 ft 405 kts 261°
2026-05-03 22:38 40.79721 -97.73956 35903 ft 405 kts 261°
2026-05-03 22:39 40.78327 -97.81132 35904 ft 406 kts 261°
2026-05-03 22:39 40.76920 -97.88354 35901 ft 407 kts 261°
2026-05-03 22:40 40.75502 -97.95606 35903 ft 408 kts 261°
2026-05-03 22:40 40.74082 -98.02843 35903 ft 408 kts 261°
2026-05-03 22:41 40.72653 -98.10098 35906 ft 409 kts 261°
2026-05-03 22:41 40.71228 -98.17307 35906 ft 409 kts 261°
2026-05-03 22:42 40.69788 -98.24563 35908 ft 410 kts 261°
2026-05-03 22:42 40.68342 -98.31827 35907 ft 410 kts 260°
2026-05-03 22:43 40.66887 -98.39108 35915 ft 411 kts 260°
2026-05-03 22:43 40.65425 -98.46395 35910 ft 411 kts 260°
2026-05-03 22:44 40.63969 -98.53632 35917 ft 412 kts 260°
2026-05-03 22:44 40.62494 -98.60934 35908 ft 412 kts 260°
2026-05-03 22:45 40.61014 -98.68239 35909 ft 413 kts 260°
2026-05-03 22:45 40.59528 -98.75541 35908 ft 413 kts 260°
2026-05-03 22:46 40.58046 -98.82804 35913 ft 414 kts 259°
2026-05-03 22:46 40.56548 -98.90113 35911 ft 413 kts 259°
2026-05-03 22:47 40.55046 -98.97421 35913 ft 414 kts 259°
2026-05-03 22:47 40.53532 -99.04760 35911 ft 415 kts 259°
2026-05-03 22:48 40.52017 -99.12079 35887 ft 415 kts 259°
2026-05-03 22:48 40.50504 -99.19363 35886 ft 416 kts 259°
2026-05-03 22:49 40.48974 -99.26703 35885 ft 416 kts 259°
2026-05-03 22:49 40.47438 -99.34042 35885 ft 417 kts 259°
2026-05-03 22:50 40.45895 -99.41394 35886 ft 418 kts 259°
2026-05-03 22:50 40.44346 -99.48750 35885 ft 418 kts 258°
2026-05-03 22:51 40.43051 -99.54876 35888 ft 419 kts 258°
2026-05-03 22:51 40.41488 -99.62249 35884 ft 419 kts 258°
2026-05-03 22:52 40.39919 -99.69625 35884 ft 420 kts 258°
2026-05-03 22:52 40.38352 -99.76962 35883 ft 420 kts 258°
2026-05-03 22:53 40.36769 -99.84356 35878 ft 421 kts 258°
2026-05-03 22:53 40.35178 -99.91756 35880 ft 421 kts 258°
2026-05-03 22:54 40.33583 -99.99155 35877 ft 422 kts 258°
2026-05-03 22:54 40.31980 -100.06560 35878 ft 422 kts 258°
2026-05-03 22:55 40.30383 -100.13915 35878 ft 423 kts 258°
2026-05-03 22:55 40.28768 -100.21339 35878 ft 423 kts 258°
2026-05-03 22:56 40.27145 -100.28770 35875 ft 424 kts 257°
2026-05-03 22:56 40.25529 -100.36150 35873 ft 424 kts 257°
2026-05-03 22:57 40.23895 -100.43586 35890 ft 425 kts 257°
2026-05-03 22:57 40.22253 -100.51034 35896 ft 425 kts 257°
2026-05-03 22:58 40.20601 -100.58478 35894 ft 426 kts 256°
2026-05-03 22:58 40.18825 -100.65843 35895 ft 427 kts 256°
2026-05-03 22:59 40.17051 -100.73259 35893 ft 427 kts 256°
2026-05-03 22:59 40.15274 -100.80674 35883 ft 428 kts 256°
2026-05-03 23:00 40.13489 -100.88100 35880 ft 429 kts 256°
2026-05-03 23:00 40.11696 -100.95536 35886 ft 429 kts 255°
2026-05-03 23:01 40.09898 -101.02972 35897 ft 429 kts 255°
2026-05-03 23:01 40.08092 -101.10417 35893 ft 429 kts 255°
2026-05-03 23:02 40.06283 -101.17848 35902 ft 430 kts 255°
2026-05-03 23:02 40.04478 -101.25241 35897 ft 430 kts 255°
2026-05-03 23:03 40.02658 -101.32672 35894 ft 429 kts 255°
2026-05-03 23:03 40.00832 -101.40102 35876 ft 429 kts 255°
2026-05-03 23:04 39.99003 -101.47525 35873 ft 429 kts 255°
2026-05-03 23:04 39.97184 -101.54878 35878 ft 429 kts 255°
2026-05-03 23:05 39.95350 -101.62277 35891 ft 429 kts 255°
2026-05-03 23:05 39.93508 -101.69679 35894 ft 429 kts 255°
2026-05-03 23:06 39.91666 -101.77061 35887 ft 428 kts 255°
2026-05-03 23:06 39.89822 -101.84431 35896 ft 428 kts 255°
2026-05-03 23:07 39.87983 -101.91752 35887 ft 427 kts 255°
2026-05-03 23:07 39.86132 -101.99104 35890 ft 427 kts 255°
2026-05-03 23:08 39.84277 -102.06447 35883 ft 427 kts 254°
2026-05-03 23:08 39.82412 -102.13809 35871 ft 427 kts 254°
2026-05-03 23:09 39.80546 -102.21150 35870 ft 427 kts 254°
2026-05-03 23:09 39.78681 -102.28467 35861 ft 426 kts 254°
2026-05-03 23:10 39.76825 -102.35725 35865 ft 426 kts 254°
2026-05-03 23:10 39.74951 -102.43033 35859 ft 426 kts 254°
2026-05-03 23:11 39.73074 -102.50333 35860 ft 426 kts 254°
2026-05-03 23:11 39.71194 -102.57619 35856 ft 425 kts 254°
2026-05-03 23:12 39.69308 -102.64907 35855 ft 425 kts 254°
2026-05-03 23:12 39.67420 -102.72185 35854 ft 425 kts 254°
2026-05-03 23:13 39.65531 -102.79441 35859 ft 424 kts 254°
2026-05-03 23:13 39.63636 -102.86701 35857 ft 424 kts 254°
2026-05-03 23:14 39.61752 -102.93896 35856 ft 424 kts 254°
2026-05-03 23:14 39.59853 -103.01131 35854 ft 424 kts 254°
2026-05-03 23:15 39.57949 -103.08358 35862 ft 423 kts 254°
2026-05-03 23:15 39.56043 -103.15577 35855 ft 423 kts 254°
2026-05-03 23:16 39.54133 -103.22789 35864 ft 422 kts 254°
2026-05-03 23:16 39.52222 -103.29984 35863 ft 422 kts 254°
2026-05-03 23:17 39.50320 -103.37124 35880 ft 421 kts 254°
2026-05-03 23:17 39.48405 -103.44292 35899 ft 421 kts 254°
2026-05-03 23:18 39.46487 -103.51451 35913 ft 420 kts 254°
2026-05-03 23:18 39.44567 -103.58597 35925 ft 420 kts 254°
2026-05-03 23:19 39.42641 -103.65745 35929 ft 420 kts 254°
2026-05-03 23:19 39.40729 -103.72822 35942 ft 419 kts 254°
2026-05-03 23:20 39.38802 -103.79937 35935 ft 419 kts 254°
2026-05-03 23:20 39.36873 -103.87036 35923 ft 418 kts 254°
2026-05-03 23:21 39.34941 -103.94130 35912 ft 418 kts 254°
2026-05-03 23:21 39.33006 -104.01210 35887 ft 418 kts 254°
2026-05-03 23:22 39.30112 -104.11766 35880 ft 417 kts 254°
2026-05-03 23:22 39.28160 -104.18863 35883 ft 417 kts 254°
2026-05-03 23:23 39.26228 -104.25866 35878 ft 416 kts 254°
2026-05-03 23:23 39.24282 -104.32902 35877 ft 416 kts 254°
2026-05-03 23:24 39.22329 -104.39943 35903 ft 416 kts 254°
2026-05-03 23:24 39.20390 -104.46917 35933 ft 415 kts 254°
2026-05-03 23:25 39.18437 -104.53919 35955 ft 415 kts 254°
2026-05-03 23:25 39.16479 -104.60924 35965 ft 415 kts 253°
2026-05-03 23:26 39.14521 -104.67903 35944 ft 414 kts 253°
2026-05-03 23:26 39.12562 -104.74874 35962 ft 414 kts 253°
2026-05-03 23:27 39.10598 -104.81840 35970 ft 413 kts 253°
2026-05-03 23:27 39.08634 -104.88790 35973 ft 413 kts 253°
2026-05-03 23:28 39.06686 -104.95662 35979 ft 403 kts 253°
2026-05-03 23:28 39.04791 -105.02336 35964 ft 392 kts 253°
2026-05-03 23:29 39.02916 -105.08917 35937 ft 391 kts 253°
2026-05-03 23:29 39.01038 -105.15496 35901 ft 391 kts 253°
2026-05-03 23:30 38.99160 -105.22057 35858 ft 391 kts 253°
2026-05-03 23:30 38.97287 -105.28584 35810 ft 391 kts 253°
2026-05-03 23:31 38.95403 -105.35132 35785 ft 391 kts 253°
2026-05-03 23:31 38.93513 -105.41686 35770 ft 391 kts 253°
2026-05-03 23:32 38.91621 -105.48230 35762 ft 390 kts 253°
2026-05-03 23:32 38.89727 -105.54764 35766 ft 391 kts 253°
2026-05-03 23:33 38.87826 -105.61309 35777 ft 391 kts 253°
2026-05-03 23:33 38.85924 -105.67838 35797 ft 390 kts 253°
2026-05-03 23:34 38.84020 -105.74364 35872 ft 390 kts 253°
2026-05-03 23:34 38.82122 -105.80847 35938 ft 390 kts 253°
2026-05-03 23:35 38.80209 -105.87366 36000 ft 390 kts 253°
2026-05-03 23:35 38.78292 -105.93886 36055 ft 390 kts 253°
2026-05-03 23:36 38.76374 -106.00393 36086 ft 390 kts 252°
2026-05-03 23:36 38.74450 -106.06902 36100 ft 391 kts 252°
2026-05-03 23:37 38.72524 -106.13406 36099 ft 390 kts 252°
2026-05-03 23:37 38.70594 -106.19905 36076 ft 390 kts 252°
2026-05-03 23:38 38.68675 -106.26352 36066 ft 390 kts 252°
2026-05-03 23:38 38.66739 -106.32841 36065 ft 390 kts 252°
2026-05-03 23:39 38.65128 -106.38230 35991 ft 388 kts 252°
2026-05-03 23:39 38.63194 -106.44686 36001 ft 389 kts 252°
2026-05-03 23:40 38.61258 -106.51139 35987 ft 387 kts 252°
2026-05-03 23:40 38.59324 -106.57569 36031 ft 387 kts 252°
2026-05-03 23:41 38.57388 -106.63990 36043 ft 387 kts 252°
2026-05-03 23:41 38.55448 -106.70409 36080 ft 387 kts 252°
2026-05-03 23:42 38.53520 -106.76775 36104 ft 386 kts 252°
2026-05-03 23:42 38.51584 -106.83152 36115 ft 385 kts 252°
2026-05-03 23:43 38.49648 -106.89517 36119 ft 385 kts 252°
2026-05-03 23:43 38.47707 -106.95881 36116 ft 384 kts 252°
2026-05-03 23:44 38.45767 -107.02229 36104 ft 383 kts 252°
2026-05-03 23:44 38.43693 -107.08502 36101 ft 384 kts 251°
2026-05-03 23:45 38.41616 -107.14775 36072 ft 382 kts 251°
2026-05-03 23:45 38.39555 -107.21008 36056 ft 381 kts 251°
2026-05-03 23:46 38.37488 -107.27245 35996 ft 382 kts 251°
2026-05-03 23:46 38.35437 -107.33423 36016 ft 381 kts 251°
2026-05-03 23:47 38.33371 -107.39630 36011 ft 380 kts 251°
2026-05-03 23:47 38.31315 -107.45799 36024 ft 378 kts 251°
2026-05-03 23:48 38.29254 -107.51967 36024 ft 378 kts 251°
2026-05-03 23:48 38.27187 -107.58143 35987 ft 378 kts 251°
2026-05-03 23:49 38.25118 -107.64302 36042 ft 380 kts 251°
2026-05-03 23:49 38.23051 -107.70453 35999 ft 377 kts 251°
2026-05-03 23:50 38.20985 -107.76582 36037 ft 376 kts 251°
2026-05-03 23:50 38.18929 -107.82669 36075 ft 377 kts 251°
2026-05-03 23:51 38.16861 -107.88780 36104 ft 375 kts 251°
2026-05-03 23:51 38.14796 -107.94868 36112 ft 374 kts 251°
2026-05-03 23:52 38.12730 -108.00947 36136 ft 374 kts 251°
2026-05-03 23:52 38.10680 -108.06967 36118 ft 372 kts 251°
2026-05-03 23:53 38.08619 -108.13007 36097 ft 372 kts 251°
2026-05-03 23:53 38.06562 -108.19022 36010 ft 372 kts 250°
2026-05-03 23:54 38.04501 -108.25039 36020 ft 371 kts 251°
2026-05-03 23:54 38.02457 -108.30991 35985 ft 370 kts 250°
2026-05-03 23:55 38.00402 -108.36965 35951 ft 369 kts 250°
2026-05-03 23:55 37.98343 -108.42937 35953 ft 369 kts 250°
2026-05-03 23:56 37.96290 -108.48881 35942 ft 367 kts 250°
2026-05-03 23:56 37.94240 -108.54803 35943 ft 367 kts 250°
2026-05-03 23:57 37.92189 -108.60718 35928 ft 366 kts 250°
2026-05-03 23:57 37.90148 -108.66587 35932 ft 366 kts 250°
2026-05-03 23:58 37.88103 -108.72462 35933 ft 364 kts 250°
2026-05-03 23:58 37.86057 -108.78327 35939 ft 364 kts 250°
2026-05-03 23:59 37.84022 -108.84153 35927 ft 363 kts 250°
2026-05-03 23:59 37.81979 -108.89992 35937 ft 362 kts 250°
2026-05-04 00:00 37.80326 -108.95959 35935 ft 358 kts 257°
2026-05-04 00:00 37.79053 -109.02053 35933 ft 358 kts 257°
2026-05-04 00:01 37.77799 -109.08136 35926 ft 357 kts 257°
2026-05-04 00:01 37.76544 -109.14223 35938 ft 357 kts 257°
2026-05-04 00:02 37.75299 -109.20249 35952 ft 356 kts 257°
2026-05-04 00:02 37.74046 -109.26302 35960 ft 356 kts 257°
2026-05-04 00:03 37.72784 -109.32376 35987 ft 357 kts 257°
2026-05-04 00:03 37.71523 -109.38426 35999 ft 356 kts 257°
2026-05-04 00:04 37.70268 -109.44436 36006 ft 356 kts 257°
2026-05-04 00:04 37.69002 -109.50481 36010 ft 356 kts 257°
2026-05-04 00:05 37.67734 -109.56517 36011 ft 355 kts 257°
2026-05-04 00:05 37.66464 -109.62549 35997 ft 356 kts 257°
2026-05-04 00:06 37.65188 -109.68591 35984 ft 356 kts 256°
2026-05-04 00:06 37.63907 -109.74637 35961 ft 356 kts 256°
2026-05-04 00:07 37.62626 -109.80667 35924 ft 355 kts 256°
2026-05-04 00:07 37.61351 -109.86656 35923 ft 356 kts 256°
2026-05-04 00:08 37.60066 -109.92672 35885 ft 355 kts 256°
2026-05-04 00:08 37.58778 -109.98686 35868 ft 355 kts 256°
2026-05-04 00:09 37.57489 -110.04694 35872 ft 355 kts 256°
2026-05-04 00:09 37.56194 -110.10708 35854 ft 355 kts 256°
2026-05-04 00:10 37.54893 -110.16735 35837 ft 355 kts 256°
2026-05-04 00:10 37.53595 -110.22733 35842 ft 355 kts 256°
2026-05-04 00:11 37.52294 -110.28726 35816 ft 354 kts 256°
2026-05-04 00:11 37.50999 -110.34676 35822 ft 355 kts 254°
2026-05-04 00:12 37.49695 -110.40656 35809 ft 354 kts 255°
2026-05-04 00:12 37.48387 -110.46630 35805 ft 354 kts 255°
2026-05-04 00:13 37.47073 -110.52622 35798 ft 355 kts 255°
2026-05-04 00:13 37.45754 -110.58619 35763 ft 355 kts 255°
2026-05-04 00:14 37.44443 -110.64563 35792 ft 355 kts 255°
2026-05-04 00:14 37.43121 -110.70546 35792 ft 355 kts 255°
2026-05-04 00:15 37.41791 -110.76541 35795 ft 355 kts 255°
2026-05-04 00:15 37.40462 -110.82522 35798 ft 355 kts 255°
2026-05-04 00:16 37.39126 -110.88519 35795 ft 356 kts 255°
2026-05-04 00:16 37.37786 -110.94514 35799 ft 356 kts 255°
2026-05-04 00:17 37.36446 -111.00495 35806 ft 355 kts 255°
2026-05-04 00:17 37.35112 -111.06437 35802 ft 355 kts 255°
2026-05-04 00:18 37.33762 -111.12432 35800 ft 357 kts 255°
2026-05-04 00:18 37.32403 -111.18451 35845 ft 358 kts 255°
2026-05-04 00:19 37.31056 -111.24401 35820 ft 356 kts 255°
2026-05-04 00:19 37.29696 -111.30395 35588 ft 355 kts 254°
2026-05-04 00:20 37.29017 -111.33381 35386 ft 355 kts 255°
2026-05-04 00:20 37.28339 -111.36363 35142 ft 356 kts 254°
2026-05-04 00:20 37.27659 -111.39345 34945 ft 355 kts 254°
2026-05-04 00:20 37.26977 -111.42329 34755 ft 355 kts 254°
2026-05-04 00:21 37.26295 -111.45312 34553 ft 354 kts 254°
2026-05-04 00:21 37.25616 -111.48285 34357 ft 354 kts 254°
2026-05-04 00:21 37.24936 -111.51256 34167 ft 354 kts 254°
2026-05-04 00:21 37.24256 -111.54222 33977 ft 354 kts 254°
2026-05-04 00:22 37.23583 -111.57154 33768 ft 353 kts 254°
2026-05-04 00:22 37.22903 -111.60116 33555 ft 353 kts 254°
2026-05-04 00:22 37.22221 -111.63079 33326 ft 354 kts 254°
2026-05-04 00:22 37.21538 -111.66046 33108 ft 354 kts 253°
2026-05-04 00:23 37.20852 -111.69022 32902 ft 355 kts 254°
2026-05-04 00:23 37.20164 -111.72001 32673 ft 355 kts 253°
2026-05-04 00:23 37.19388 -111.74944 32454 ft 355 kts 251°
2026-05-04 00:23 37.18589 -111.77883 32238 ft 356 kts 251°
2026-05-04 00:24 37.17796 -111.80823 32027 ft 356 kts 251°
2026-05-04 00:24 37.17007 -111.83758 31885 ft 356 kts 251°
2026-05-04 00:24 37.15426 -111.89637 31886 ft 357 kts 251°
2026-05-04 00:25 37.13842 -111.95516 31890 ft 355 kts 251°
2026-05-04 00:25 37.12263 -112.01366 31895 ft 353 kts 251°
2026-05-04 00:26 37.10689 -112.07183 31905 ft 351 kts 252°
2026-05-04 00:26 37.09115 -112.12985 31902 ft 361 kts 252°
2026-05-04 00:27 37.07465 -112.19058 31907 ft 375 kts 252°
2026-05-04 00:27 37.05775 -112.25259 31908 ft 376 kts 252°
2026-05-04 00:28 37.04358 -112.30449 31899 ft 376 kts 252°
2026-05-04 00:28 37.02671 -112.36612 31901 ft 376 kts 252°
2026-05-04 00:29 37.00974 -112.42801 31894 ft 376 kts 252°
2026-05-04 00:29 36.99274 -112.48988 31889 ft 376 kts 252°
2026-05-04 00:30 36.97576 -112.55128 31884 ft 375 kts 252°
2026-05-04 00:30 36.95869 -112.61292 31902 ft 374 kts 252°
2026-05-04 00:31 36.94166 -112.67431 31916 ft 373 kts 252°
2026-05-04 00:31 36.92462 -112.73552 31943 ft 372 kts 252°
2026-05-04 00:32 36.90765 -112.79641 31960 ft 371 kts 252°
2026-05-04 00:32 36.89068 -112.85716 31979 ft 369 kts 252°
2026-05-04 00:33 36.86537 -112.94745 32005 ft 368 kts 252°
2026-05-04 00:34 36.84841 -113.00777 31997 ft 368 kts 252°
2026-05-04 00:34 36.83147 -113.06793 31980 ft 367 kts 252°
2026-05-04 00:35 36.81451 -113.12803 31949 ft 367 kts 252°
2026-05-04 00:35 36.79751 -113.18811 31907 ft 367 kts 252°
2026-05-04 00:36 36.78052 -113.24801 31862 ft 366 kts 252°
2026-05-04 00:36 36.76350 -113.30792 31826 ft 366 kts 251°
2026-05-04 00:37 36.74647 -113.36769 31648 ft 365 kts 251°
2026-05-04 00:37 36.73796 -113.39755 31448 ft 365 kts 251°
2026-05-04 00:37 36.72944 -113.42738 31245 ft 366 kts 251°
2026-05-04 00:37 36.72092 -113.45733 31046 ft 366 kts 251°
2026-05-04 00:38 36.71249 -113.48695 30843 ft 367 kts 251°
2026-05-04 00:38 36.70395 -113.51692 30643 ft 368 kts 251°
2026-05-04 00:38 36.69537 -113.54701 30450 ft 368 kts 251°
2026-05-04 00:38 36.68675 -113.57723 30250 ft 369 kts 251°
2026-05-04 00:39 36.67813 -113.60737 30055 ft 369 kts 251°
2026-05-04 00:39 36.66951 -113.63750 29849 ft 368 kts 251°
2026-05-04 00:39 36.66094 -113.66748 28894 ft 369 kts 250°
2026-05-04 00:39 36.65233 -113.69748 27779 ft 377 kts 250°
2026-05-04 00:40 36.64342 -113.72850 26750 ft 383 kts 250°
2026-05-04 00:40 36.63441 -113.75987 25809 ft 386 kts 250°
2026-05-04 00:40 36.62526 -113.79167 24834 ft 395 kts 249°
2026-05-04 00:40 36.61581 -113.82450 23784 ft 406 kts 249°
2026-05-04 00:41 36.60617 -113.85794 23026 ft 411 kts 249°
2026-05-04 00:41 36.59648 -113.89151 22597 ft 413 kts 249°
2026-05-04 00:41 36.58466 -113.92317 22217 ft 399 kts 236°
2026-05-04 00:41 36.56836 -113.95028 21667 ft 392 kts 232°
2026-05-04 00:42 36.55200 -113.97726 21104 ft 388 kts 232°
2026-05-04 00:42 36.53572 -114.00381 20527 ft 384 kts 231°
2026-05-04 00:42 36.51951 -114.03002 19969 ft 381 kts 231°
2026-05-04 00:42 36.50341 -114.05597 19420 ft 378 kts 231°
2026-05-04 00:43 36.48738 -114.08178 18852 ft 376 kts 231°
2026-05-04 00:43 36.47136 -114.10754 18300 ft 375 kts 230°
2026-05-04 00:43 36.45539 -114.13321 17714 ft 374 kts 230°
2026-05-04 00:43 36.43951 -114.15871 17197 ft 371 kts 230°
2026-05-04 00:44 36.42383 -114.18388 16747 ft 366 kts 230°
2026-05-04 00:44 36.40825 -114.20885 16235 ft 363 kts 230°
2026-05-04 00:44 36.39280 -114.23349 15733 ft 361 kts 229°
2026-05-04 00:44 36.37730 -114.25781 15305 ft 357 kts 229°
2026-05-04 00:45 36.36221 -114.28150 14906 ft 352 kts 229°
2026-05-04 00:45 36.34709 -114.30523 14477 ft 348 kts 229°
2026-05-04 00:45 36.33212 -114.32871 14055 ft 345 kts 229°
2026-05-04 00:45 36.31729 -114.35196 13632 ft 342 kts 229°
2026-05-04 00:46 36.30260 -114.37498 13184 ft 340 kts 229°
2026-05-04 00:46 36.28800 -114.39785 12735 ft 337 kts 229°
2026-05-04 00:46 36.27347 -114.42059 12310 ft 334 kts 230°
2026-05-04 00:46 36.25927 -114.44281 11903 ft 332 kts 230°
2026-05-04 00:47 36.24485 -114.46501 11453 ft 329 kts 229°
2026-05-04 00:47 36.23055 -114.48694 11037 ft 322 kts 229°
2026-05-04 00:47 36.21683 -114.50802 10685 ft 307 kts 229°
2026-05-04 00:47 36.20373 -114.52812 10324 ft 294 kts 229°
2026-05-04 00:48 36.19112 -114.54745 9964 ft 282 kts 229°
2026-05-04 00:48 36.17898 -114.56605 9600 ft 274 kts 229°
2026-05-04 00:48 36.16722 -114.58405 9264 ft 263 kts 229°
2026-05-04 00:48 36.15589 -114.60138 8942 ft 256 kts 228°
2026-05-04 00:49 36.14471 -114.61848 8776 ft 253 kts 228°
2026-05-04 00:49 36.13375 -114.63519 8639 ft 246 kts 228°
2026-05-04 00:49 36.12316 -114.65135 8513 ft 238 kts 228°
2026-05-04 00:49 36.11290 -114.66701 8369 ft 230 kts 228°
2026-05-04 00:50 36.10302 -114.68206 8254 ft 221 kts 227°
2026-05-04 00:50 36.09359 -114.69645 8133 ft 218 kts 228°
2026-05-04 00:50 36.08392 -114.71117 8027 ft 217 kts 227°
2026-05-04 00:50 36.07600 -114.72627 7768 ft 216 kts 246°
2026-05-04 00:51 36.07403 -114.74542 7377 ft 226 kts 263°
2026-05-04 00:51 36.07384 -114.76498 7173 ft 229 kts 263°
2026-05-04 00:51 36.07378 -114.78444 6988 ft 230 kts 263°
2026-05-04 00:51 36.07374 -114.80421 6806 ft 229 kts 264°
2026-05-04 00:52 36.07372 -114.82386 6638 ft 229 kts 264°
2026-05-04 00:52 36.07371 -114.84355 6498 ft 229 kts 264°
2026-05-04 00:52 36.07371 -114.86331 6345 ft 229 kts 264°
2026-05-04 00:52 36.07371 -114.88292 6085 ft 227 kts 264°
2026-05-04 00:53 36.07370 -114.90244 5877 ft 227 kts 264°
2026-05-04 00:53 36.07370 -114.92197 5397 ft 227 kts 264°
2026-05-04 00:53 36.07371 -114.94146 4957 ft 227 kts 264°
2026-05-04 00:53 36.07369 -114.96090 4587 ft 223 kts 265°
2026-05-04 00:54 36.07368 -114.97981 4327 ft 215 kts 265°
2026-05-04 00:54 36.07371 -114.99742 4064 ft 198 kts 265°
2026-05-04 00:54 36.07370 -115.01381 3826 ft 180 kts 264°
2026-05-04 00:54 36.07368 -115.02874 3627 ft 174 kts 264°
2026-05-04 00:55 36.07368 -115.04358 3412 ft 171 kts 263°
2026-05-04 00:55 36.07366 -115.05811 3188 ft 167 kts 263°
2026-05-04 00:55 36.07373 -115.07176 3044 ft 152 kts 264°
2026-05-04 00:55 36.07379 -115.08458 2851 ft 155 kts 264°
2026-05-04 00:56 36.07379 -115.09883 2776 ft 173 kts 264°
2026-05-04 00:56 36.07375 -115.11324 2491 ft 159 kts 263°
2026-05-04 00:56 36.07371 -115.12625 2245 ft 145 kts 263°
2026-05-04 00:56 36.07365 -115.13758 2191 ft 108 kts 269°
2026-05-04 00:57 36.07361 -115.14444 2194 ft 57 kts 270°
2026-05-04 00:57 36.07391 -115.14851 2194 ft 37 kts 290°
2026-05-04 00:57 36.07479 -115.15067 2192 ft 22 kts 302°
2026-05-04 00:57 36.07553 -115.15145 2192 ft 14 kts 330°
2026-05-04 00:58 36.07658 -115.15208 2192 ft 21 kts 335°
2026-05-04 00:58 36.07767 -115.15261 2194 ft 14 kts 10°
2026-05-04 00:58 36.07805 -115.15146 2191 ft 19 kts 91°
2026-05-04 00:58 36.07794 -115.14938 2191 ft 30 kts 95°
2026-05-04 00:59 36.07773 -115.14656 2193 ft 35 kts 94°
2026-05-04 00:59 36.07760 -115.14403 2192 ft 27 kts 94°
2026-05-04 00:59 36.07762 -115.14190 2191 ft 18 kts 63°
2026-05-04 00:59 36.07880 -115.14159 2192 ft 19 kts 359°
2026-05-04 01:00 36.08019 -115.14159 2192 ft 21 kts
2026-05-04 01:00 36.08172 -115.14159 2192 ft 23 kts
2026-05-04 01:00 36.08305 -115.14137 2190 ft 16 kts 39°
2026-05-04 01:00 36.08390 -115.14033 2190 ft 18 kts 45°
2026-05-04 01:01 36.08416 -115.13924 2192 ft 13 kts 90°
2026-05-04 01:01 36.08406 -115.13831 2191 ft 5 kts 142°
2026-05-04 01:01 36.08372 -115.13846 2192 ft 7 kts 223°
2026-05-04 01:01 36.08348 -115.13873 2193 ft 0 kts 221°